Wind_Speed
34 33 33 32 32 32 32 32 33 33 32 32 31 31 31 30 30 29 29 28 28 28 28 27 27 26 25 24 23 22 20 19 19 18 19 19 19 19 19 20 21 23 25 27 28 29 29 28 28 27 27 26 25 24 22 21 20 19 19 19 18 18 18 17 17 18 18 18 19
35 34 34 33 32 32 32 32 33 33 33 33 32 32 31 31 30 30 29 29 29 29 28 27 26 26 25 25 24 22 21 20 19 19 19 19 19 18 19 20 20 22 23 25 28 29 30 29 29 28 28 27 26 25 23 22 21 20 20 20 19 19 18 18 18 18 19 19 19
34 34 34 33 33 33 32 32 33 33 33 33 33 33 32 31 31 30 30 30 29 28 28 27 27 26 25 25 24 23 22 21 20 19 19 19 19 19 19 19 20 21 22 24 26 28 30 30 30 29 29 28 27 26 24 23 22 21 21 20 20 19 19 19 19 19 20 20 20
34 34 34 34 34 34 34 33 33 33 33 33 32 32 32 32 31 31 30 30 29 29 28 28 27 26 25 25 24 24 23 22 21 20 20 20 19 19 19 20 20 21 22 23 24 27 29 30 31 30 30 29 28 27 25 24 22 22 21 21 20 20 19 19 20 20 21 21 21
34 34 34 34 35 35 34 34 33 33 32 32 31 31 31 31 31 31 30 30 30 30 29 28 27 26 25 25 25 24 24 23 22 21 21 20 20 20 20 20 21 21 21 22 23 25 27 29 31 31 31 30 29 27 25 24 23 22 22 21 21 20 20 20 21 21 21 22 22
34 34 34 34 34 34 34 34 33 33 32 31 31 30 31 31 31 30 30 30 30 29 28 27 26 26 25 25 25 25 24 24 23 23 22 21 21 20 20 21 21 21 21 22 22 23 25 28 31 32 32 31 29 27 26 24 23 23 22 22 22 21 21 21 21 22 22 22 22
34 34 34 34 34 33 33 33 33 33 32 32 31 31 31 31 31 30 30 29 29 29 28 27 27 26 26 26 26 25 25 25 24 24 23 22 22 21 21 21 21 21 22 22 22 23 25 27 30 32 32 32 30 28 27 25 24 24 23 23 22 22 22 22 22 22 22 22 22
34 34 34 34 33 33 33 33 32 32 32 32 32 32 32 31 31 30 30 29 29 29 28 27 27 27 26 26 26 26 26 26 25 25 24 23 23 22 22 22 22 22 22 23 23 24 25 27 29 32 33 32 31 29 28 26 25 24 24 23 23 22 22 22 22 22 22 22 22
34 34 34 33 33 33 33 32 32 32 32 32 32 32 32 31 31 30 30 30 30 29 28 28 27 26 26 26 26 26 26 26 26 25 25 24 24 23 23 23 23 23 23 23 24 24 25 27 29 32 33 33 32 30 28 27 26 25 24 24 23 23 23 23 22 22 22 22 22
35 35 34 34 33 33 32 32 32 32 32 32 32 32 32 31 31 31 30 30 29 29 28 28 27 27 26 26 26 26 26 25 25 25 25 24 24 24 24 24 24 24 23 24 24 24 25 27 29 31 33 33 32 31 29 27 26 25 25 24 23 23 23 23 23 22 22 22 22
35 35 34 34 33 32 32 31 31 32 32 32 32 32 32 32 32 31 30 29 29 29 29 28 27 27 26 26 26 25 25 25 25 24 24 24 24 24 24 24 24 24 24 24 24 25 26 28 30 32 33 33 33 31 30 28 26 26 25 24 24 24 23 23 23 22 21 21 22
35 35 34 33 32 31 31 31 31 31 32 32 32 32 32 32 32 31 30 30 30 29 28 27 27 26 26 25 25 25 25 24 24 24 24 24 24 24 24 24 24 24 24 24 25 26 27 29 30 32 33 34 33 32 30 28 27 26 25 25 24 24 24 23 22 22 21 21 21
35 34 33 32 32 31 31 31 31 31 31 32 31 31 31 31 31 31 31 30 30 29 28 27 26 26 26 25 25 24 24 24 24 24 24 24 24 24 24 25 25 25 25 25 26 27 28 29 31 33 34 34 33 32 30 29 27 26 26 25 25 24 23 23 22 21 21 21 21
34 34 33 32 31 31 31 31 31 31 31 31 30 30 30 30 30 30 30 30 30 29 28 27 26 26 25 25 24 24 24 24 24 24 24 24 24 24 25 25 25 25 25 26 26 27 29 30 31 33 34 34 33 32 30 28 27 26 26 25 24 24 23 22 21 21 21 21 21
33 33 32 31 30 31 31 31 31 30 30 30 30 29 29 29 29 29 29 29 29 28 28 27 27 26 25 24 24 24 24 24 24 24 24 25 25 25 25 25 25 25 25 26 27 28 29 30 31 33 33 33 33 31 30 28 27 26 25 24 24 23 22 21 21 21 21 21 22
33 32 31 30 30 30 30 30 30 30 30 29 28 28 28 28 28 28 28 28 28 28 27 27 26 25 25 24 24 24 24 24 24 25 25 25 25 25 25 25 25 25 25 26 27 28 29 30 31 32 33 32 32 30 29 28 26 25 24 23 22 22 21 21 21 21 21 21 22
32 31 30 29 29 29 30 29 29 29 29 28 27 27 27 27 27 27 27 27 27 27 27 26 26 25 25 24 24 25 25 25 25 25 26 26 25 25 25 25 25 24 25 25 26 27 28 29 30 31 32 31 31 29 28 27 25 24 23 22 22 21 21 21 21 21 21 22 22
31 30 29 29 29 29 29 29 29 28 28 27 26 26 26 26 26 26 26 26 26 26 26 25 25 24 24 24 24 25 25 25 26 26 26 26 25 25 24 24 24 24 24 25 26 27 28 28 29 30 31 30 30 28 27 26 24 23 22 22 21 21 21 21 21 21 21 22 22
31 30 29 29 29 29 29 29 28 27 27 26 25 25 25 25 25 25 25 25 25 24 24 24 24 24 24 24 24 24 25 25 25 26 25 25 25 24 24 23 23 23 24 24 25 26 27 27 28 29 30 30 29 27 26 25 23 22 22 22 22 21 21 21 21 21 21 22 22
30 29 29 29 29 29 29 28 28 27 26 25 24 24 24 24 24 24 24 24 23 23 23 23 23 23 23 23 23 24 24 24 25 25 25 24 24 24 23 23 23 23 23 24 25 25 26 27 28 28 29 29 28 26 25 24 23 22 22 22 22 21 21 21 21 21 21 22 22
29 28 28 28 28 28 28 27 27 26 25 24 24 23 23 23 23 23 23 22 22 21 22 22 22 23 23 23 23 23 23 23 23 24 24 23 23 23 22 22 22 23 23 24 25 25 26 26 27 27 28 27 26 25 23 23 22 22 22 21 21 21 21 20 20 21 21 22 22
27 27 26 26 27 27 26 26 25 24 24 23 23 22 22 22 22 22 21 21 20 21 21 22 22 22 22 22 22 22 22 22 22 23 23 22 22 22 22 22 23 23 24 24 25 25 25 25 26 26 26 25 24 23 23 22 21 21 21 20 20 20 20 20 20 21 21 22 22
26 25 25 25 25 25 25 24 24 23 23 22 22 22 22 22 21 21 20 20 20 21 21 22 22 22 22 21 21 21 21 21 22 22 22 22 22 22 22 22 23 24 24 24 24 25 25 25 26 26 25 24 23 22 22 21 21 20 20 19 19 19 20 20 20 21 21 21 22
24 24 24 24 23 23 23 23 23 22 22 22 22 22 21 21 21 20 20 20 21 21 21 21 21 21 21 20 20 20 20 21 21 21 21 21 21 22 22 22 23 24 24 24 24 24 24 25 25 24 23 23 22 22 21 20 20 19 19 19 19 19 19 20 20 21 21 21 22
23 23 23 23 22 22 22 22 22 22 22 22 21 21 21 21 21 20 20 20 20 20 20 20 20 20 20 20 19 20 20 20 21 21 21 21 21 21 22 22 23 23 23 23 23 23 24 24 24 23 22 22 21 20 20 19 18 18 18 18 18 19 19 20 20 21 21 22 22
23 23 22 22 22 21 22 22 22 22 21 21 21 21 21 20 20 20 20 20 19 19 19 19 19 19 19 19 19 20 20 20 20 20 21 21 21 21 22 22 23 23 23 23 22 23 23 22 22 22 21 20 19 19 18 18 18 17 17 17 18 18 19 20 21 21 22 22 23
23 22 22 21 21 21 21 21 21 20 20 20 20 20 20 19 19 19 18 18 18 18 18 18 18 18 18 19 19 20 20 20 20 20 20 20 21 21 22 22 23 23 23 22 22 22 22 21 21 20 19 19 18 17 17 17 17 17 17 17 17 18 18 19 21 21 22 23 23
22 21 21 20 20 20 20 20 19 19 19 19 18 18 17 17 17 17 16 16 16 16 17 17 17 18 18 19 19 20 20 20 20 20 20 20 20 21 22 22 22 22 22 22 22 22 21 19 18 17 16 16 16 16 16 16 16 16 16 16 17 17 18 19 21 22 22 23 24
21 20 20 19 19 19 18 18 18 17 17 16 15 15 15 15 15 14 14 15 15 15 16 16 16 17 18 19 19 19 19 19 19 20 20 20 21 21 22 22 22 22 22 22 22 21 19 18 16 15 14 13 13 14 14 15 15 15 16 16 17 18 19 20 21 22 23 24 25
20 19 19 18 18 17 17 16 15 15 14 13 13 13 13 13 13 13 13 13 14 14 14 15 16 17 18 18 18 19 19 19 19 20 20 21 21 22 22 22 22 22 22 22 21 20 18 17 16 15 13 13 12 13 13 14 15 15 16 17 17 18 19 20 21 22 23 24 25
19 18 18 17 16 15 14 14 13 12 12 12 12 12 12 12 12 12 12 12 12 13 13 14 16 17 17 17 18 18 19 19 19 20 20 21 21 22 22 22 22 22 22 21 20 19 18 16 15 15 14 13 13 13 14 14 15 15 16 17 18 19 20 21 22 23 24 24 25
18 17 16 15 14 13 12 12 11 11 11 11 11 11 11 12 11 11 11 11 12 12 13 14 15 16 16 17 17 18 18 19 19 20 20 20 21 22 22 22 22 22 21 20 19 18 17 16 15 14 14 14 13 13 14 14 15 15 16 17 18 19 20 21 22 23 24 25 25
16 15 14 13 13 12 11 11 10 10 10 11 11 11 11 11 10 10 10 11 12 12 13 14 15 15 16 17 17 18 18 19 19 19 20 20 21 21 21 21 21 21 21 19 18 17 16 15 14 14 14 13 13 13 13 14 15 16 17 18 19 20 21 22 23 24 25 25 26
15 14 13 12 11 11 10 10 10 10 10 10 11 10 10 10 10 11 11 11 11 12 13 13 14 14 15 16 16 17 18 18 18 19 19 20 20 21 21 21 21 20 19 18 17 15 15 14 14 14 13 13 12 13 14 15 16 17 18 19 20 21 22 23 24 25 25 25 26
13 13 12 12 11 10 10 10 10 10 10 10 10 10 10 10 10 10 10 11 11 12 13 13 14 14 15 16 16 17 17 18 18 18 19 19 20 20 21 20 20 19 18 16 15 15 14 14 14 14 13 13 13 14 15 16 17 18 19 20 21 22 22 23 24 24 24 24 24
12 12 11 11 11 10 10 10 10 11 11 11 10 10 10 10 10 10 10 11 12 13 14 14 15 15 16 16 17 17 17 17 18 18 18 18 19 20 20 19 18 17 16 15 15 14 14 14 14 14 13 13 14 15 16 17 18 18 19 20 21 22 22 23 23 23 23 23 22
11 10 10 10 10 10 10 10 11 11 11 10 10 10 10 10 10 10 10 11 13 13 14 14 15 16 16 16 17 17 17 16 16 17 17 18 18 18 18 17 16 16 15 14 14 14 14 15 14 14 13 14 15 15 16 17 18 18 19 20 21 22 22 22 22 22 22 21 20
10 9 9 9 10 10 10 10 10 10 9 9 8 8 8 9 10 10 11 12 13 13 14 14 15 15 15 15 16 15 15 15 15 15 16 16 16 16 16 15 15 14 14 14 14 14 14 14 14 14 14 14 15 15 16 17 18 19 19 20 21 22 22 22 21 21 20 19 19
8 8 8 8 9 9 9 8 8 7 7 7 7 7 7 8 9 10 10 11 11 12 13 13 14 14 14 14 14 14 14 13 13 14 14 14 14 14 14 13 13 13 13 13 13 14 14 14 14 14 14 14 15 15 16 17 18 19 20 21 21 22 21 21 20 19 19 18 18
8 7 7 7 7 7 7 6 5 5 4 5 5 6 7 7 8 8 9 9 10 11 12 12 13 12 12 12 13 13 13 12 12 12 12 12 12 13 13 12 12 13 13 13 13 14 14 14 14 14 14 14 15 16 16 17 18 19 20 20 21 20 20 19 18 17 17 17 17
8 7 7 6 6 5 5 4 4 4 4 4 4 5 5 5 6 7 7 8 9 10 11 11 11 11 11 11 11 11 11 11 11 11 12 12 12 12 12 12 12 12 13 13 13 14 14 14 14 14 14 14 15 15 16 17 17 19 19 20 19 19 18 18 17 17 17 17 18
Wind_Direction
233 233 233 234 235 236 238 240 242 244 244 245 245 246 246 246 246 247 249 249 249 250 252 253 255 257 259 259 259 258 258 258 257 257 257 258 258 257 256 254 251 248 246 243 240 238 236 234 234 233 234 235 235 236 237 238 241 244 248 252 255 258 262 266 270 273 277 279 282
234 234 234 234 235 237 239 241 243 244 245 246 247 247 247 247 247 248 250 250 251 252 254 255 255 256 257 258 259 259 258 258 258 258 258 258 258 258 257 255 253 251 248 246 243 240 237 235 233 233 233 234 235 235 235 237 240 244 248 251 255 258 262 266 270 274 277 280 282
235 235 235 234 235 236 237 239 241 243 245 246 247 247 247 248 249 250 251 252 254 254 254 254 254 255 255 257 259 259 259 258 258 258 258 258 259 258 258 257 255 253 251 249 246 242 239 236 234 233 234 234 234 235 235 237 239 243 247 252 255 259 262 266 271 274 277 279 280
237 236 235 235 235 236 237 239 241 243 245 247 247 248 248 249 250 251 253 254 254 254 254 253 253 254 255 256 257 259 259 259 258 258 258 258 258 258 257 257 256 255 253 251 248 245 241 238 235 234 234 235 235 236 236 237 240 244 248 252 255 259 263 267 270 273 276 278 279
238 238 237 237 238 239 240 241 242 244 246 247 247 248 249 250 251 252 253 253 254 254 254 254 253 254 255 255 256 258 259 259 258 257 258 258 258 257 257 256 256 255 255 254 251 247 243 239 236 235 235 236 237 237 238 239 241 245 248 252 255 259 263 266 270 272 274 277 279
238 239 240 240 241 241 242 243 244 245 246 247 247 247 249 250 251 252 252 253 255 256 256 255 254 254 254 254 255 256 257 257 257 257 257 257 256 256 255 254 254 255 255 254 252 248 244 239 236 235 235 236 237 238 239 240 242 245 248 252 255 258 262 265 268 271 274 276 278
240 241 241 242 243 243 243 244 245 246 246 246 246 247 249 251 252 253 255 257 258 257 256 255 254 253 253 253 253 254 255 256 256 256 256 256 255 254 253 253 253 253 253 253 251 248 244 239 236 234 234 235 236 237 238 240 242 245 248 252 255 258 262 265 268 271 273 276 278
242 243 243 244 245 245 245 246 246 245 244 244 245 248 250 252 253 255 257 258 257 256 256 254 254 254 254 254 254 254 255 255 255 256 256 255 255 254 252 252 251 251 251 251 250 247 243 239 235 234 233 234 235 236 238 239 242 245 248 252 255 258 261 264 267 270 273 275 277
241 243 244 245 246 246 247 247 246 245 244 245 247 250 252 253 254 255 255 255 256 256 256 255 255 255 255 254 255 255 255 255 255 256 255 255 254 253 252 251 250 250 249 249 248 246 242 238 235 233 233 233 235 236 238 239 242 245 248 252 255 259 261 264 267 270 272 275 277
239 241 243 243 245 246 247 247 246 246 246 247 250 252 253 253 253 254 254 255 256 256 255 255 255 254 254 254 254 255 255 255 255 255 255 255 254 253 252 250 249 249 248 247 245 243 241 237 234 232 232 233 234 236 238 240 242 245 249 252 255 258 261 264 267 270 272 275 277
241 241 242 242 244 245 245 245 245 246 247 248 250 252 252 252 253 253 254 254 254 254 254 254 254 254 254 255 255 255 255 255 255 255 254 254 253 252 251 250 250 249 248 246 244 242 239 236 233 231 231 232 233 235 237 239 242 245 248 251 254 257 260 263 267 270 273 275 278
242 242 242 243 244 244 244 243 244 245 246 247 249 250 251 251 252 252 252 252 251 252 253 253 253 254 255 255 255 255 255 255 255 254 254 253 253 252 251 251 250 249 248 246 244 241 238 235 232 231 230 231 232 234 236 239 241 244 247 250 253 256 259 263 267 270 273 276 277
242 241 241 241 242 242 242 243 244 244 245 247 248 249 250 251 251 251 250 250 250 252 253 252 252 253 254 256 256 256 255 255 255 254 254 253 252 252 251 250 250 249 248 247 244 241 238 235 233 231 230 230 231 233 235 238 241 244 247 250 253 256 260 264 267 270 273 275 276
243 241 240 240 240 241 241 242 243 244 245 246 247 248 249 250 250 249 249 249 250 251 252 252 252 253 254 255 256 257 256 256 255 254 254 253 252 251 250 250 250 249 249 247 244 242 239 236 234 232 231 231 231 233 235 238 241 244 247 250 253 257 260 264 267 269 271 274 276
242 241 240 240 240 240 241 242 242 243 244 246 247 247 248 249 249 249 249 249 250 251 252 252 252 253 254 255 256 256 257 256 255 254 253 253 252 251 250 250 250 250 249 248 246 243 240 238 236 234 232 231 231 233 235 238 241 244 247 250 254 257 261 264 266 268 271 273 277
242 241 240 239 239 240 240 241 241 242 243 245 246 246 247 248 249 249 249 249 250 250 251 251 252 253 253 254 254 255 255 255 254 253 252 251 251 251 251 250 250 250 249 248 246 244 242 240 238 235 234 232 232 233 236 239 241 244 247 250 254 257 260 263 265 268 271 274 277
241 240 240 239 238 239 239 239 240 241 242 244 245 246 247 248 249 249 249 249 250 250 250 251 252 253 253 253 252 252 252 252 252 252 251 251 251 251 250 250 250 250 249 248 247 245 243 241 239 236 234 232 232 234 236 238 241 244 247 251 254 257 260 262 265 268 271 274 277
240 239 239 238 237 237 238 238 239 240 242 244 245 247 248 249 250 250 251 251 251 250 250 252 253 253 252 252 251 251 251 251 251 251 251 251 251 251 251 251 251 250 250 249 248 246 244 242 239 235 232 231 231 233 235 238 241 244 248 251 254 257 259 262 265 268 272 275 278
239 238 237 237 236 237 237 237 238 240 242 244 246 248 250 251 251 252 252 253 252 252 252 253 253 253 252 252 252 252 251 251 251 252 252 252 251 251 250 250 250 250 250 249 249 248 246 242 238 234 230 229 230 232 234 238 241 245 249 252 255 257 260 263 266 269 273 276 279
239 238 237 237 236 236 236 237 238 240 242 244 247 249 251 252 253 253 253 253 253 253 253 252 252 252 252 252 252 252 252 252 252 252 252 252 251 250 249 249 249 249 249 249 249 248 245 241 236 232 229 228 229 231 235 239 243 247 250 253 256 258 262 265 268 271 274 277 279
239 238 238 238 237 236 237 237 239 240 242 244 247 250 252 253 254 253 254 254 254 253 252 251 251 251 251 251 251 251 252 252 252 252 251 251 250 249 248 248 247 247 247 248 248 246 243 239 233 229 227 227 229 232 236 240 244 248 251 254 257 260 264 267 271 273 276 277 279
239 240 240 239 239 238 238 239 239 241 243 245 248 251 253 254 254 255 256 255 253 251 250 249 249 249 250 250 251 251 252 252 252 252 251 250 250 248 247 246 246 245 245 245 245 243 239 234 229 226 226 228 231 235 239 243 246 249 252 256 260 263 266 270 272 275 276 278 279
240 240 240 240 239 239 239 239 240 241 243 246 249 251 253 255 256 256 256 253 251 249 248 247 247 248 249 250 251 252 252 251 251 250 250 249 248 247 245 244 244 244 243 244 243 239 234 229 225 225 227 230 234 238 242 245 248 251 255 259 262 266 269 271 273 275 276 278 279
239 240 240 240 239 239 239 239 240 241 244 246 249 252 254 255 256 255 253 251 249 248 247 246 247 247 248 250 250 250 250 250 249 249 248 247 247 245 244 243 242 242 243 242 240 235 230 225 224 226 229 234 238 241 245 247 251 254 258 261 265 268 270 272 273 275 276 278 280
238 239 240 240 239 238 238 238 240 242 245 248 251 252 253 254 254 253 252 250 249 248 247 246 247 247 248 249 249 249 249 249 249 249 248 247 246 245 243 242 242 242 241 239 235 230 227 225 226 229 233 237 241 244 247 250 253 257 260 264 267 269 272 273 274 276 278 280 282
237 237 238 238 238 237 238 239 242 245 247 249 250 251 251 251 251 251 251 250 249 248 247 247 247 247 248 248 248 248 248 248 249 249 249 249 247 245 244 243 241 240 237 234 229 226 225 227 230 234 237 241 243 246 249 252 256 259 263 266 269 271 274 276 277 279 281 283 284
234 234 235 237 237 238 240 243 245 247 248 248 248 248 248 249 250 250 251 251 250 249 248 248 247 248 248 248 248 248 248 248 249 249 249 249 249 248 246 243 241 237 233 228 225 224 226 230 234 238 242 245 247 250 253 257 261 264 266 269 271 273 275 277 279 281 282 284 284
231 232 234 236 237 239 242 244 245 246 246 246 246 246 247 248 249 251 251 251 250 249 248 247 246 247 247 247 248 248 249 249 249 249 249 249 248 247 246 243 239 234 229 224 223 224 228 232 235 239 244 248 251 254 258 261 264 267 269 270 272 273 275 276 278 280 281 282 283
230 231 232 234 236 239 241 242 242 243 244 244 244 245 246 247 248 249 249 249 248 247 246 246 245 245 245 246 247 248 249 249 249 248 248 247 246 245 244 241 237 231 226 223 224 226 230 232 233 234 236 242 248 254 257 260 263 265 267 268 270 271 272 274 276 277 278 279 280
229 230 231 233 235 236 238 238 239 240 241 241 242 242 243 244 245 245 245 245 245 245 245 244 244 244 245 246 247 247 247 247 247 246 245 244 244 243 241 239 234 229 226 224 226 228 230 232 233 232 231 234 240 246 252 256 259 261 263 265 267 268 270 272 273 274 276 277 277
227 228 229 231 232 232 233 233 234 234 235 236 237 237 238 239 241 241 241 242 243 243 242 241 242 243 244 245 245 246 245 245 244 243 243 243 243 242 240 236 232 228 226 226 227 229 231 232 234 234 235 235 239 244 248 253 256 258 260 262 264 266 268 270 271 272 273 275 276
225 225 226 226 226 225 225 224 225 226 228 229 231 233 234 236 238 239 239 239 239 238 237 237 238 240 241 242 243 243 243 243 243 242 242 242 241 240 238 234 230 227 226 226 228 229 231 233 236 238 240 242 244 247 250 253 255 257 259 261 263 265 267 268 270 271 273 274 275
221 220 220 218 217 215 215 215 217 219 221 224 227 229 231 233 234 235 234 234 234 234 235 236 236 237 238 239 240 241 241 242 241 241 241 240 239 237 235 231 227 226 225 226 228 230 233 236 238 241 244 246 248 250 252 254 255 257 259 261 263 265 267 268 270 272 273 274 275
213 212 211 210 209 207 207 208 211 214 217 221 224 227 229 230 230 230 229 230 231 233 235 238 238 239 240 241 241 241 241 241 240 239 238 237 235 233 230 226 224 224 225 226 228 232 235 238 241 244 246 248 249 250 252 254 256 258 261 263 265 267 268 270 271 272 274 275 276
203 203 202 202 202 202 202 204 206 210 215 219 222 224 226 227 228 229 229 230 231 232 234 235 236 237 237 238 239 240 241 240 239 238 236 233 230 227 224 222 222 223 224 227 230 234 238 241 244 246 248 249 250 251 254 257 260 262 264 266 268 270 271 273 274 275 275 276 277
195 196 196 195 197 198 200 202 205 209 214 218 221 223 223 224 226 228 229 229 230 231 232 232 232 233 233 234 235 236 238 239 238 236 233 229 225 222 220 220 221 223 226 230 234 238 241 244 247 250 252 254 256 258 261 263 265 268 270 271 273 275 276 277 277 278 278 279 278
190 192 192 192 194 196 199 202 205 208 212 215 220 222 224 224 225 225 226 227 228 229 229 231 231 232 232 233 234 235 236 236 235 232 228 225 222 219 219 220 223 226 230 233 237 241 244 248 251 255 258 261 263 265 268 270 271 273 274 276 277 279 280 280 281 281 281 281 280
186 188 189 190 191 193 196 199 203 206 210 214 218 221 224 225 226 227 227 227 228 229 230 231 232 233 234 235 235 235 234 233 230 227 224 221 220 220 220 223 226 230 234 237 240 244 247 252 256 260 264 266 268 270 272 274 275 277 278 279 280 281 282 282 283 283 283 282 281
180 181 183 185 186 187 189 193 197 202 207 213 216 219 221 224 226 227 228 230 233 235 235 235 235 236 236 235 233 231 228 226 223 220 219 218 219 221 223 225 229 233 237 241 244 248 252 257 261 264 267 270 272 274 275 277 278 279 279 280 281 282 282 283 283 284 283 282 281
164 166 168 170 172 172 175 179 184 188 195 206 216 219 221 223 225 227 228 232 235 238 240 240 239 238 236 233 229 225 221 218 215 214 213 216 219 223 226 228 232 237 242 246 250 254 258 261 265 268 271 273 275 276 277 278 279 280 280 280 280 281 282 282 282 282 281 280 278
140 143 144 145 144 145 147 151 158 163 173 190 207 215 221 224 227 228 229 232 234 237 239 239 238 236 233 229 225 220 215 212 210 210 212 215 220 225 230 233 238 242 247 252 256 260 263 266 268 271 274 276 278 278 278 279 278 278 278 278 278 278 279 280 280 279 278 277 277
Height
799 800 801 801 802 803 803 803 804 804 805 806 807 807 808 808 809 809 810 811 811 811 812 813 813 814 815 816 817 818 819 821 821 822 823 823 823 824 825 826 826 827 828 829 830 831 832 833 834 834 835 836 836 837 838 838 839 839 840 840 840 841 841 841 841 842 842 842 842
796 797 798 799 800 801 801 802 802 803 803 803 804 805 805 806 807 807 808 808 809 809 810 811 812 813 813 814 815 816 818 818 819 820 821 821 822 823 823 824 825 825 826 827 828 829 830 831 832 833 833 834 835 835 836 837 838 838 838 838 839 839 839 840 840 840 841 841 841
794 795 797 798 798 799 799 799 799 800 800 801 802 803 803 804 805 805 806 806 807 808 809 810 810 811 812 813 813 814 815 817 818 818 819 819 820 821 822 822 823 823 824 825 826 827 828 829 830 831 832 832 833 833 834 835 836 836 837 837 838 838 838 838 838 839 839 839 839
792 793 794 795 795 796 796 796 797 797 798 799 800 801 802 802 803 803 804 805 806 806 807 808 808 809 810 811 812 812 813 814 816 817 817 818 818 819 820 820 821 822 823 823 824 825 827 828 828 829 830 830 831 832 833 834 834 835 835 836 836 836 837 837 837 838 838 838 838
789 790 791 792 792 793 793 794 795 795 796 797 798 799 800 800 801 802 802 803 803 804 805 806 807 808 809 809 810 811 812 813 814 815 815 816 817 818 818 819 819 820 821 822 822 823 825 826 827 828 828 829 829 830 832 833 833 833 834 834 835 835 835 836 836 836 836 836 836
787 787 788 789 790 791 792 793 793 794 795 796 797 797 798 798 799 799 800 800 801 802 803 804 805 806 807 808 808 809 810 811 812 813 813 814 815 816 817 817 818 818 819 820 821 822 823 824 825 826 827 827 828 829 830 831 832 832 832 833 833 833 834 834 834 835 835 835 835
784 785 786 787 788 788 789 790 791 792 793 794 795 795 795 795 796 797 798 798 799 800 802 803 804 804 805 806 807 807 808 809 810 811 812 813 813 814 815 815 816 817 817 818 819 820 821 822 823 824 824 826 827 828 828 829 830 830 831 831 831 832 832 833 833 833 833 833 833
782 783 783 784 785 786 787 788 789 790 791 792 792 792 792 793 794 795 796 797 798 798 800 801 802 803 803 804 805 806 806 807 808 808 809 810 811 812 813 814 814 815 816 816 817 818 819 820 821 822 823 823 824 826 827 828 828 828 829 829 830 830 831 831 831 832 832 832 832
780 780 781 782 783 784 785 786 787 788 789 789 789 789 790 791 792 793 794 795 796 797 798 799 800 801 802 802 803 804 804 805 806 807 808 808 809 810 811 812 813 813 814 814 815 816 817 818 818 819 820 821 823 824 825 826 827 827 827 828 828 829 829 829 830 830 830 830 830
777 778 779 780 781 782 783 784 785 786 786 787 787 788 788 790 790 791 792 793 794 795 796 797 798 799 800 800 801 802 803 803 804 805 806 807 807 808 809 810 810 811 812 813 813 814 815 816 816 817 818 819 821 822 823 824 825 825 826 826 827 827 827 828 828 828 828 829 829
774 775 776 777 778 779 781 782 783 784 784 785 785 786 787 788 788 789 790 791 792 793 793 795 796 797 798 798 799 800 800 801 802 803 804 804 805 806 807 808 808 809 810 811 812 812 813 813 814 815 816 818 819 820 821 822 823 823 824 824 825 825 826 826 826 827 827 827 827
772 773 774 775 776 778 779 780 781 781 782 782 783 783 784 785 786 787 788 789 790 790 791 793 794 795 795 796 797 798 798 799 800 801 802 802 803 804 805 806 807 807 808 809 810 810 811 811 812 813 814 815 817 818 819 820 821 821 822 822 823 823 824 824 825 825 825 825 825
769 771 772 773 775 776 777 778 778 779 779 780 780 781 782 783 784 785 786 787 788 788 789 791 792 793 793 794 795 796 797 798 798 799 800 800 801 802 803 804 804 805 806 807 808 808 809 809 810 811 812 813 814 816 817 818 818 819 820 820 821 821 822 823 823 823 824 823 823
767 768 770 771 773 773 774 775 776 776 777 777 778 779 780 781 782 783 784 785 785 786 788 789 790 791 792 792 793 794 795 795 796 797 798 798 799 800 801 802 803 803 804 805 806 806 807 807 808 809 810 811 812 813 815 816 817 817 818 818 819 820 820 821 822 822 822 822 822
765 766 768 769 770 771 772 773 773 774 774 775 775 777 778 779 780 781 782 783 783 785 786 787 788 789 790 791 791 792 793 793 794 795 796 796 797 798 799 800 800 801 802 803 803 804 804 805 806 807 808 809 811 812 813 814 815 815 816 817 817 818 818 819 820 820 820 820 820
762 763 765 767 768 768 769 770 771 771 772 773 773 774 776 777 778 779 780 781 782 783 784 785 786 787 788 789 790 790 791 792 792 793 794 794 795 796 797 798 798 799 800 801 801 802 803 803 804 805 807 808 809 810 811 812 813 814 814 815 816 816 817 817 818 818 818 818 818
760 761 763 764 765 765 766 767 768 769 769 770 772 773 774 775 776 777 778 779 780 781 782 783 784 785 786 787 788 788 789 790 790 791 792 792 793 794 795 795 796 797 798 798 799 800 801 802 803 804 805 806 808 808 809 810 811 812 813 813 814 814 815 815 816 816 816 816 816
757 758 760 761 762 763 763 764 766 767 768 768 770 771 772 773 774 775 776 777 778 779 780 781 782 783 784 785 786 786 787 788 788 788 789 790 791 792 793 793 794 795 796 796 797 798 798 800 801 802 803 805 806 807 808 809 809 810 811 811 812 813 813 813 814 814 814 814 814
754 756 757 758 759 760 761 762 763 765 766 767 768 769 770 771 772 773 774 775 776 777 778 779 780 781 782 783 783 784 785 785 786 786 787 788 789 790 791 792 793 793 794 794 795 796 797 798 799 801 802 803 804 805 806 807 808 808 809 809 810 811 811 812 812 812 812 813 813
752 753 754 755 757 758 759 760 762 763 764 765 766 767 768 769 770 771 772 773 774 776 777 778 778 779 780 781 782 782 783 783 784 784 785 786 787 788 789 790 791 791 792 793 793 794 795 796 798 799 800 802 803 803 804 805 806 807 807 808 808 809 809 810 810 810 810 811 811
749 751 752 753 755 756 757 759 760 762 763 764 765 766 767 768 768 769 770 771 773 774 775 775 776 777 778 778 779 780 780 781 782 783 783 784 785 786 787 788 789 790 790 791 792 793 794 795 797 798 799 800 801 802 803 803 804 805 805 806 807 807 808 808 808 808 808 809 809
747 748 750 752 753 754 756 757 759 760 761 762 763 764 765 766 767 768 768 770 771 772 772 773 774 774 775 776 777 778 779 779 780 781 782 783 783 784 786 787 787 788 789 789 790 791 793 794 796 797 798 799 800 801 801 802 803 803 804 804 805 805 806 806 806 807 807 807 807
745 747 748 750 751 753 754 756 757 758 759 760 761 762 763 764 765 766 767 768 768 769 770 771 772 773 773 774 775 776 777 778 778 779 780 781 782 783 784 785 786 786 787 788 789 790 792 793 795 796 797 798 798 799 800 800 801 802 802 803 803 803 804 804 804 805 805 805 805
744 745 747 748 749 751 753 754 755 756 757 758 759 760 761 762 763 764 765 766 766 767 768 769 770 771 772 773 774 775 776 776 777 778 778 780 781 782 783 783 784 785 786 787 788 790 791 793 794 795 796 796 797 798 798 799 799 800 801 801 801 802 802 802 803 803 803 803 803
742 743 745 746 748 749 751 752 753 754 755 757 758 759 760 760 761 762 763 764 765 766 767 768 769 770 771 772 773 773 774 775 776 777 778 778 779 780 781 782 783 784 786 787 788 790 791 792 793 794 794 795 796 796 797 797 798 798 799 799 799 800 800 800 801 801 801 802 802
740 741 743 744 746 747 748 750 751 753 754 755 756 757 758 759 760 761 762 763 763 765 766 767 768 769 770 771 771 772 773 774 775 776 777 778 778 779 780 782 783 784 785 786 788 789 790 791 792 793 793 793 794 795 795 796 796 797 797 797 798 798 798 798 798 799 799 799 800
738 739 741 742 744 745 747 748 750 751 752 753 754 755 756 758 758 759 760 762 763 764 765 766 767 768 769 770 770 771 772 773 774 775 776 777 778 778 780 781 782 783 784 786 787 788 789 790 791 791 791 792 793 793 793 794 794 794 795 795 795 796 796 796 797 797 797 797 798
736 738 739 741 742 744 745 747 748 749 751 752 753 754 755 756 758 758 759 761 762 763 764 765 766 767 768 768 769 770 771 772 773 774 775 776 777 778 779 780 781 783 784 785 787 787 788 788 789 789 790 790 791 791 792 792 792 793 793 793 793 794 794 794 795 795 795 795 796
735 736 738 739 741 742 744 745 747 748 749 751 752 753 754 755 756 757 758 759 760 761 762 763 764 765 766 767 768 769 770 771 772 773 774 775 776 777 778 779 780 782 783 784 785 786 786 787 788 788 789 789 789 789 790 790 790 791 791 791 792 792 793 793 793 793 793 794 794
734 735 736 738 739 741 742 743 745 747 748 749 751 752 753 754 755 756 757 758 759 760 761 762 763 764 764 765 767 768 769 770 771 772 773 774 775 776 777 778 780 781 782 783 784 784 785 785 786 787 788 788 788 788 788 788 789 789 789 790 790 791 791 791 792 792 792 792 792
733 734 735 736 738 739 741 742 744 745 747 748 749 750 751 752 753 754 755 756 757 758 759 760 761 762 763 764 765 766 767 768 769 770 771 772 773 774 776 777 778 780 781 782 782 783 783 783 784 785 786 786 787 787 787 787 787 788 788 788 789 789 789 790 790 790 790 790 790
732 733 734 735 736 738 739 741 742 744 745 746 747 748 749 750 751 752 753 754 755 756 757 758 759 760 761 762 763 764 765 766 767 768 769 771 772 773 774 776 777 778 779 780 780 781 782 782 783 783 784 785 785 785 785 785 786 786 787 787 787 788 788 788 788 788 788 788 788
730 731 732 733 735 736 738 739 741 742 743 744 746 747 748 748 750 751 752 753 753 754 755 756 757 758 759 760 761 763 763 764 766 767 768 769 770 772 773 775 776 777 778 778 779 779 780 781 781 782 783 783 783 783 784 784 784 785 785 785 785 786 786 786 786 786 786 786 786
729 730 731 732 733 734 736 738 739 740 742 743 744 745 746 747 748 749 750 751 752 753 754 755 756 757 758 759 760 761 762 763 764 765 767 768 769 771 772 773 774 775 776 777 778 778 779 779 780 781 781 782 782 782 782 783 783 783 783 783 783 784 784 784 784 784 784 784 784
728 728 729 731 732 733 734 736 738 739 740 742 743 743 745 746 746 748 748 750 751 752 753 754 755 756 757 758 758 759 761 762 763 764 765 767 768 769 771 772 773 774 775 776 776 777 778 778 779 779 780 780 780 780 781 781 781 781 781 782 782 782 782 782 782 782 782 782 781
726 727 728 729 731 732 733 735 736 738 739 740 742 743 744 745 746 747 748 749 750 751 752 753 753 754 755 756 758 758 760 761 762 763 764 766 767 769 770 771 772 773 773 774 775 776 776 777 778 778 778 779 779 779 779 779 779 779 779 779 779 779 779 780 779 779 779 779 779
726 727 728 729 730 731 733 734 735 737 738 740 741 742 743 744 745 746 747 748 749 750 751 752 753 753 754 756 757 758 759 760 761 763 764 765 767 768 769 770 771 772 773 773 774 774 775 776 776 777 777 777 777 777 777 777 777 777 777 777 777 777 777 777 777 777 777 777 777
726 727 727 728 729 731 732 733 735 736 738 739 741 742 743 744 745 746 747 748 748 749 750 751 752 753 754 755 756 757 758 760 761 762 763 765 766 767 768 769 770 771 771 772 773 773 774 774 775 775 775 775 775 775 775 775 775 775 775 775 775 775 775 775 775 775 774 774 774
725 726 727 728 729 730 731 733 734 736 737 739 740 742 743 744 745 746 747 748 749 750 751 751 752 753 754 755 756 757 758 759 761 762 763 764 765 767 768 768 769 770 770 771 772 772 773 773 773 774 774 774 774 774 774 774 773 773 773 773 773 773 773 773 773 773 772 772 772
725 726 727 728 729 730 731 732 733 735 737 738 740 741 742 743 744 745 747 748 749 750 751 752 753 754 755 756 757 758 758 760 761 762 763 764 765 766 767 768 768 769 769 770 771 771 772 772 772 772 773 773 772 772 772 772 772 772 771 771 771 771 771 771 771 771 770 770 770
725 726 727 728 728 729 731 732 733 734 736 738 739 740 742 743 744 745 746 748 749 750 751 753 753 754 755 756 757 758 759 760 761 762 763 763 764 765 766 767 767 768 768 769 769 770 770 770 771 771 771 771 771 771 770 770 770 770 769 769 769 769 769 769 769 769 769 768 768